Regional Weather Roundup
Issued by NWS

Home | Current Version | Previous Version | Text Only | Print | Product List | Glossary On
Versions: 1 2 3 4 5 6 7 8 9 10 11 12 13 14 15 16 17 18 19 20 21 22 23 24 25 26 27 28 29 30 31 32 33 34 35 36 37 38 39 40 41 42 43 44 45 46 47 48 49 50
000
ASUS43 KLSX 150907
RWRMO

WEATHER SUMMARY FOR MISSOURI
NATIONAL WEATHER SERVICE SPRINGFIELD MO
300 AM CST MON JAN 15 2018

NOTE: "FAIR" INDICATES FEW OR NO CLOUDS BELOW 12,000 FEET WITH NO
       SIGNIFICANT WEATHER AND/OR OBSTRUCTIONS TO VISIBILITY.
       CURRENT SKY AND/OR WEATHER CONDITIONS ARE NOT AVAILABLE FOR
       CHILLICOTHE AND FARMINGTON.

MOZ001>031-035>038-043-044-053-054-151000-
...NORTHERN AND WESTERN MISSOURI...

CITY           SKY/WX    TMP DP  RH WIND       PRES   REMARKS
KANSAS CTY INT CLOUDY    26  17  68 N17       30.25R WCI  13
KANSAS C DTWN  CLOUDY    29  17  61 NW18G25   30.27R WCI  16
LEE`S SUMMIT   CLOUDY    28  20  71 N21G29    30.24R WCI  15
ST JOSEPH        N/A    N/A N/A N/A MISG      30.31R
CHILLICOTHE      N/A     28  20  71 NW12G21   30.22R WCI  18
KIRKSVILLE     CLOUDY    26  17  68 NW21G30   30.16R WCI  12

$$
MOZ066>068-077>081-088>096-101>105-151000-
...SOUTHWEST MISSOURI...

CITY           SKY/WX    TMP DP  RH WIND       PRES   REMARKS
SPRINGFIELD    CLOUDY    28  21  75 S3        30.19R
JOPLIN         CLOUDY    35  24  64 SW14G23   30.22R WCI  26

$$
MOZ032>034-039>042-045>050-055>058-069>072-151000-
...CENTRAL MISSOURI...

CITY           SKY/WX    TMP DP  RH WIND       PRES   REMARKS
COLUMBIA       LGT SNOW  30  28  92 W10       30.17S FOG     WCI  21
JEFFERSON CITY LGT SNOW  28  26  92 W5        30.21R FOG     WCI  23
ROLLA          LGT SNOW  25  23  92 SW13      30.18S FOG     WCI  14
SEDALIA        LGT SNOW  32  31  96 NW12G18   30.21R FOG     WCI  23
WHITEMAN AFB   CLOUDY    31  29  90 NW8       30.18R WCI  24
WARRENSBURG    CLOUDY    32  28  86 NW9G20    30.23R WCI  24
OSAGE BEACH    LGT SNOW  28  27  96 W5        30.22R FOG     WCI  23

$$
MOZ051-052-059>065-151000-
...EAST CENTRAL MISSOURI...

CITY           SKY/WX    TMP DP  RH WIND       PRES   REMARKS
ST LOUIS INTL  LGT SNOW  26  23  88 S10       30.18F FOG     WCI  16
SPIRIT OF STL  LGT SNOW  27  24  89 SW9       30.19S FOG     WCI  18
ST CHARLES     LGT SNOW  26  24  92 SW7       30.19S FOG     WCI  18

$$
MOZ072>076-082>087-097>100-106>115-151000-
...SOUTH CENTRAL AND SOUTHEAST MISSOURI...

CITY           SKY/WX    TMP DP  RH WIND       PRES   REMARKS
CAPE GIRARDEAU FAIR      24  16  71 S9        30.31F WCI  14
FARMINGTON     CLOUDY    23  19  85 S9        30.22F WCI  13
POPLAR BLUFF   FAIR      24  19  81 SW6       30.31F WCI  17
WEST PLAINS    MOCLDY    19  15  84 S3        30.21F

$$



USA.gov is the U.S. government's official web portal to all federal, state and local government web resources and services.